Wind_Speed
66 61 57 54 54 58 64 66 71 74 74 72 69 67 66 65 64 63 62 60 60 59 58 58 56 55 54 53 53 52 52 50 49 50 51 50 51 51 51 50 50 50 49
73 68 64 58 57 59 64 69 69 69 70 71 73 73 70 68 66 65 64 63 62 62 62 61 59 58 57 57 56 55 54 53 52 54 55 55 53 54 54 53 51 47 46
79 75 69 66 64 62 66 66 73 75 73 71 70 70 70 69 68 67 66 65 64 63 64 63 63 62 61 61 60 59 57 57 57 58 58 58 57 55 54 52 51 50 49
83 79 74 71 71 67 68 67 69 73 76 74 71 70 66 67 69 69 69 68 66 65 64 64 64 64 64 64 62 62 61 61 60 59 58 58 57 55 54 53 53 52 51
87 84 81 76 75 75 73 73 74 75 75 75 75 72 70 68 69 67 65 63 63 62 62 61 64 64 65 64 64 65 62 61 60 60 59 58 56 56 55 53 52 52 51
94 88 85 82 80 79 76 77 77 76 76 76 76 76 74 73 72 69 69 69 67 65 64 64 64 63 64 64 64 63 62 61 60 60 60 58 57 56 54 52 51 50 51
98 94 89 87 84 83 82 81 79 79 78 78 77 77 79 79 77 75 74 72 71 69 67 65 63 63 66 66 65 64 63 62 60 59 59 58 56 55 53 52 52 52 52
104 101 96 91 87 86 86 85 85 81 80 83 82 82 80 78 78 77 74 73 71 69 68 67 68 67 67 68 67 66 64 63 62 61 58 57 56 55 54 52 52 54 54
101 105 103 98 94 91 88 89 88 88 84 81 80 79 80 84 85 81 77 77 76 74 72 70 70 68 68 68 67 67 65 63 62 61 58 58 56 55 54 53 54 49 48
97 100 104 105 100 97 94 91 90 89 88 86 84 82 79 78 78 80 83 82 81 80 78 77 75 72 70 67 66 65 64 62 61 60 59 59 58 56 55 53 49 47 46
99 96 100 104 105 103 99 96 94 92 91 89 87 85 82 80 78 77 77 78 79 79 78 77 75 73 71 69 67 65 63 62 62 62 61 60 60 59 55 50 50 48 46
105 101 98 101 105 106 104 102 99 96 95 93 90 88 86 84 82 80 78 76 76 75 74 73 71 71 71 69 68 67 66 65 65 65 63 63 62 61 53 52 49 48 44
111 108 104 100 101 105 107 107 105 102 99 98 96 92 88 87 85 83 82 80 79 77 76 74 73 72 72 71 70 70 69 68 67 66 66 66 63 58 55 53 51 49 47
118 114 111 108 103 103 105 107 107 105 104 102 100 98 95 93 90 88 86 84 82 79 77 75 73 73 74 73 73 72 71 70 70 69 69 67 65 61 57 57 56 54 51
125 121 117 113 110 107 105 106 107 106 105 104 104 102 99 97 97 95 93 91 90 86 82 80 78 74 75 77 77 75 75 75 74 73 71 69 68 65 63 61 61 58 56
130 126 123 119 117 113 110 107 107 109 108 108 107 105 102 100 98 97 98 97 95 92 88 86 85 81 80 81 81 80 79 78 77 76 74 72 71 69 67 65 64 62 60
132 130 127 125 122 119 116 113 110 109 110 111 111 109 108 106 104 103 101 100 98 96 93 91 88 85 83 83 85 84 82 81 79 78 76 74 73 73 71 69 67 64 64
136 134 132 131 128 125 122 120 117 114 112 111 111 112 112 111 111 110 108 106 104 101 98 95 93 90 88 86 87 87 85 84 82 81 79 76 76 76 75 73 70 68 67
142 140 138 134 132 130 128 125 123 121 118 116 114 113 112 112 112 111 109 108 106 104 101 99 97 95 93 93 90 88 87 86 85 84 82 79 77 77 76 74 71 70 68
147 144 142 139 136 135 134 132 129 127 124 123 121 119 117 115 113 111 109 107 105 102 100 98 96 95 94 94 94 91 89 87 86 86 84 81 80 81 79 76 73 69 67
151 150 146 143 141 139 136 135 134 132 130 128 126 125 123 120 118 115 112 109 106 103 100 97 95 93 93 93 93 91 87 85 84 83 83 81 80 78 75 73 69 67 68
136 148 150 148 145 143 141 138 137 136 136 134 132 130 128 127 125 122 118 114 111 109 106 102 100 97 96 94 93 91 89 87 86 83 83 81 80 77 73 70 69 69 69
116 128 143 150 150 149 147 145 144 140 137 137 137 135 134 132 130 127 125 123 120 117 113 109 107 105 103 101 99 97 95 93 90 88 87 85 83 82 78 75 74 74 72
104 108 119 136 148 152 151 150 149 147 144 143 142 142 139 138 136 134 130 129 126 124 120 117 116 114 112 110 108 105 103 101 98 96 93 92 90 87 86 85 82 81 80
96 99 105 114 126 141 150 152 151 151 151 150 148 144 142 142 141 139 137 135 132 129 126 124 122 120 120 118 117 115 113 111 107 105 102 100 98 95 95 93 91 90 88
91 95 99 102 108 118 130 144 151 152 154 154 153 151 148 145 143 143 142 141 140 139 135 132 129 127 126 123 121 122 121 120 118 114 112 109 106 106 103 101 99 99 96
Wind_Direction
225 223 220 218 216 216 218 221 224 226 229 230 230 230 230 231 232 234 235 238 241 243 245 247 249 251 253 255 257 260 262 265 269 272 274 276 278 280 282 285 287 288 289
223 220 216 212 215 214 218 220 223 225 225 228 231 232 232 232 233 235 237 238 241 243 245 247 250 251 252 255 258 260 264 268 271 273 276 278 279 280 282 284 287 287 286
224 222 217 212 215 212 217 220 224 226 226 228 228 231 235 235 234 235 237 238 240 243 246 249 251 253 255 257 259 262 266 269 271 273 275 277 277 279 282 283 283 285 285
225 224 220 213 213 214 213 216 222 225 227 228 228 230 230 234 237 236 238 240 241 244 246 250 252 254 256 258 261 263 265 267 270 272 273 275 278 280 281 281 282 283 283
224 225 223 216 214 215 215 216 220 223 226 227 230 231 231 232 234 234 235 237 240 242 245 247 251 253 256 258 260 263 265 267 268 271 272 275 275 278 280 279 279 281 281
223 224 225 223 218 217 218 218 219 222 226 227 227 230 232 233 232 234 238 241 242 245 245 247 248 251 253 255 258 260 263 265 265 267 271 273 275 277 277 277 278 279 280
222 224 223 225 223 220 221 222 222 224 225 228 229 229 231 233 235 237 240 241 242 243 244 245 246 249 251 252 254 257 260 263 265 266 268 271 273 274 276 278 280 282 282
222 222 224 223 226 225 223 223 224 227 227 229 231 232 232 234 235 237 238 240 243 246 246 246 249 251 251 252 253 256 259 262 264 266 267 269 271 274 278 281 283 285 286
221 222 222 223 224 226 226 226 225 227 230 232 232 232 234 235 237 237 238 239 241 244 246 249 251 251 252 252 254 256 258 261 263 265 267 269 271 275 279 283 284 283 283
222 222 224 225 223 225 226 227 229 229 229 231 233 236 236 238 238 238 239 239 240 242 244 247 249 251 252 253 254 256 258 260 262 264 267 271 274 276 280 281 279 280 281
223 224 224 224 227 227 225 227 228 229 230 232 234 235 236 238 240 241 240 240 242 244 246 248 249 251 253 255 256 257 258 259 262 265 268 270 272 277 280 276 278 280 280
222 223 224 226 225 228 230 228 228 230 231 232 234 236 238 239 239 240 241 242 243 243 245 247 249 250 251 253 254 256 258 260 262 264 266 269 273 275 275 274 276 277 280
221 223 224 225 227 227 228 230 231 231 231 231 233 234 236 238 240 241 241 242 242 243 245 246 249 251 252 253 254 256 257 259 260 262 265 269 271 272 272 272 272 275 279
220 222 224 225 225 227 228 229 231 232 233 233 233 234 235 236 238 239 241 242 243 244 245 247 248 251 253 254 254 255 257 258 260 262 265 268 269 270 271 269 269 272 276
221 221 222 225 226 226 227 229 230 231 232 233 235 236 237 237 238 239 240 241 242 244 246 247 249 252 255 254 254 255 256 258 259 261 263 265 267 270 268 266 268 272 275
221 221 222 224 225 227 228 228 230 231 232 233 235 236 238 239 240 241 241 242 242 244 246 248 251 252 256 254 253 253 254 255 257 259 261 264 266 267 265 265 268 273 275
222 223 223 223 225 226 228 229 230 231 232 233 234 236 237 238 239 240 241 242 243 246 248 250 251 253 255 256 255 254 255 257 258 260 262 264 264 264 265 266 269 273 276
221 223 224 224 225 226 228 229 230 232 233 235 235 235 236 238 239 240 241 242 244 245 247 249 250 251 253 254 254 255 256 257 258 260 261 262 263 265 266 268 270 272 274
221 222 224 225 226 227 228 229 231 233 234 235 236 237 238 239 239 241 242 244 245 246 247 249 251 252 252 252 252 254 255 257 259 260 261 262 263 265 266 267 268 269 271
221 223 224 225 226 227 228 229 230 232 234 235 237 237 238 239 240 242 243 244 245 246 247 248 249 251 251 252 253 255 256 256 258 260 260 260 261 262 264 265 266 266 264
222 223 225 226 227 229 229 230 231 233 234 235 237 238 240 241 242 243 243 244 245 247 247 248 249 250 251 253 253 254 255 256 257 257 259 259 259 260 261 262 263 262 263
223 224 225 227 228 229 230 232 233 234 235 235 237 239 240 241 242 243 244 245 245 246 247 248 249 249 250 251 252 252 253 254 255 256 257 257 258 258 259 260 260 261 262
226 225 225 226 229 230 230 232 233 233 234 236 237 238 240 241 243 244 245 245 246 246 248 248 249 250 250 251 252 252 253 255 255 255 256 256 256 258 258 259 260 261 262
229 227 226 226 227 230 232 232 233 235 236 236 237 238 239 240 241 242 244 245 246 247 248 248 249 249 250 250 251 252 253 253 254 255 255 255 256 258 258 259 260 260 261
228 230 229 228 227 228 230 232 234 235 237 237 238 239 239 240 241 242 244 245 246 247 247 248 248 249 250 250 251 251 252 253 253 253 254 255 255 256 257 259 260 261 262
230 228 230 231 229 228 229 231 232 235 237 238 239 240 241 241 242 243 244 245 246 246 247 248 248 248 249 250 251 251 252 253 253 253 254 254 255 256 256 257 259 261 262
Height
10636 10647 10657 10666 10673 10681 10687 10693 10701 10710 10721 10729 10737 10743 10749 10758 10765 10771 10777 10785 10790 10795 10799 10803 10808 10813 10818 10820 10822 10824 10826 10828 10830 10830 10831 10833 10834 10835 10837 10838 10838 10838 10836
10619 10632 10643 10653 10659 10667 10675 10682 10690 10699 10707 10715 10722 10729 10737 10745 10753 10761 10767 10773 10779 10783 10787 10792 10798 10803 10807 10809 10811 10815 10818 10820 10821 10820 10822 10824 10825 10825 10827 10828 10829 10828 10828
10603 10616 10629 10639 10646 10654 10662 10671 10678 10686 10694 10702 10709 10716 10727 10734 10742 10748 10753 10759 10766 10772 10777 10782 10787 10791 10794 10797 10801 10805 10808 10810 10812 10811 10812 10813 10815 10816 10818 10818 10818 10818 10817
10589 10602 10614 10626 10632 10640 10648 10656 10663 10673 10680 10689 10697 10705 10714 10718 10725 10735 10742 10749 10755 10761 10767 10771 10775 10778 10782 10786 10790 10794 10797 10799 10801 10802 10801 10802 10804 10805 10807 10808 10808 10808 10807
10574 10586 10599 10611 10620 10627 10635 10642 10650 10657 10664 10675 10685 10693 10700 10706 10713 10723 10730 10737 10742 10749 10755 10759 10761 10766 10770 10775 10778 10781 10786 10787 10789 10790 10791 10792 10792 10794 10796 10797 10797 10796 10796
10556 10568 10582 10596 10605 10613 10621 10628 10636 10644 10651 10660 10670 10679 10686 10694 10701 10709 10717 10724 10730 10736 10741 10745 10750 10755 10758 10762 10766 10770 10772 10775 10778 10779 10779 10781 10781 10783 10784 10785 10786 10787 10785
10537 10550 10563 10575 10587 10599 10608 10616 10624 10632 10639 10647 10656 10665 10672 10680 10689 10696 10702 10709 10717 10722 10726 10733 10738 10742 10746 10750 10754 10758 10761 10764 10766 10769 10770 10770 10771 10772 10774 10775 10775 10774 10774
10516 10530 10543 10557 10570 10581 10593 10601 10609 10617 10625 10633 10642 10651 10658 10666 10674 10682 10689 10696 10702 10707 10714 10720 10724 10729 10733 10738 10742 10746 10749 10752 10754 10756 10759 10760 10760 10761 10762 10764 10763 10762 10760
10496 10511 10523 10538 10551 10563 10574 10584 10594 10603 10610 10618 10626 10635 10643 10651 10659 10667 10674 10681 10687 10692 10699 10704 10709 10715 10720 10724 10729 10733 10737 10740 10742 10744 10746 10748 10749 10751 10751 10752 10751 10751 10749
10480 10494 10508 10520 10531 10544 10556 10566 10576 10586 10594 10602 10611 10619 10627 10635 10642 10651 10659 10665 10671 10678 10685 10689 10694 10700 10705 10710 10715 10719 10722 10726 10729 10732 10734 10734 10736 10739 10740 10740 10740 10740 10740
10463 10476 10489 10501 10513 10524 10534 10546 10556 10567 10576 10585 10594 10603 10612 10619 10627 10635 10642 10650 10656 10662 10668 10674 10680 10685 10690 10695 10701 10705 10709 10712 10716 10718 10721 10723 10724 10725 10727 10728 10728 10728 10729
10442 10455 10468 10480 10492 10504 10516 10526 10536 10547 10557 10566 10575 10584 10593 10602 10609 10617 10625 10633 10640 10646 10653 10659 10665 10670 10675 10681 10686 10690 10694 10698 10702 10704 10708 10709 10712 10713 10714 10716 10717 10717 10717
10420 10432 10446 10458 10470 10482 10494 10505 10515 10526 10535 10545 10555 10564 10573 10582 10591 10599 10608 10616 10622 10630 10637 10644 10649 10654 10660 10666 10671 10675 10679 10683 10687 10690 10693 10695 10698 10700 10702 10704 10705 10706 10707
10395 10410 10423 10436 10448 10459 10471 10483 10494 10505 10515 10525 10535 10544 10554 10563 10572 10580 10589 10597 10604 10611 10619 10627 10633 10638 10644 10650 10655 10660 10663 10667 10671 10675 10678 10681 10683 10686 10689 10690 10691 10693 10695
10370 10386 10400 10413 10427 10438 10448 10460 10471 10482 10493 10503 10513 10524 10534 10543 10552 10561 10569 10577 10584 10592 10602 10609 10615 10621 10627 10631 10637 10642 10646 10650 10655 10659 10663 10666 10668 10671 10673 10676 10677 10680 10682
10342 10360 10377 10390 10402 10415 10427 10437 10448 10459 10470 10481 10492 10502 10512 10522 10531 10540 10548 10557 10565 10574 10583 10590 10597 10604 10608 10613 10618 10624 10629 10634 10638 10643 10647 10651 10653 10654 10656 10659 10662 10665 10667
10318 10335 10353 10366 10378 10390 10403 10414 10426 10436 10446 10456 10468 10478 10488 10498 10507 10516 10525 10534 10544 10554 10562 10570 10577 10585 10590 10594 10600 10606 10611 10617 10623 10626 10631 10634 10636 10637 10640 10643 10647 10651 10651
10291 10306 10322 10338 10353 10366 10378 10389 10401 10413 10424 10433 10443 10454 10464 10474 10483 10492 10502 10511 10522 10532 10541 10550 10557 10564 10570 10575 10580 10585 10592 10599 10604 10608 10612 10617 10618 10620 10622 10627 10632 10634 10635
10266 10279 10295 10313 10329 10344 10356 10367 10378 10388 10400 10410 10419 10429 10439 10449 10460 10469 10480 10490 10500 10509 10519 10528 10534 10542 10549 10552 10558 10565 10572 10579 10585 10589 10594 10597 10600 10600 10603 10611 10614 10617 10618
10242 10255 10271 10286 10301 10316 10330 10342 10354 10363 10374 10385 10395 10405 10415 10425 10436 10446 10456 10467 10477 10486 10496 10505 10513 10520 10525 10530 10536 10544 10551 10560 10565 10568 10572 10577 10581 10580 10585 10591 10595 10600 10597
10217 10233 10246 10260 10275 10289 10303 10316 10330 10341 10351 10360 10370 10381 10392 10402 10412 10422 10433 10445 10455 10464 10474 10484 10492 10498 10503 10507 10515 10523 10531 10537 10542 10547 10550 10554 10558 10562 10567 10571 10576 10579 10579
10191 10207 10223 10236 10249 10262 10275 10289 10302 10315 10326 10336 10346 10355 10365 10375 10386 10397 10409 10421 10431 10440 10450 10461 10468 10475 10480 10486 10492 10500 10508 10514 10520 10526 10529 10534 10536 10543 10549 10554 10557 10559 10561
10165 10179 10196 10211 10221 10233 10246 10258 10268 10282 10297 10308 10318 10329 10340 10348 10359 10371 10382 10393 10404 10415 10426 10437 10443 10450 10457 10462 10468 10477 10483 10491 10498 10503 10507 10512 10517 10521 10529 10533 10537 10540 10543
10138 10153 10167 10182 10195 10206 10217 10230 10241 10251 10264 10275 10285 10295 10308 10319 10330 10341 10353 10363 10374 10384 10398 10409 10416 10422 10429 10435 10443 10452 10459 10466 10473 10478 10484 10488 10494 10501 10505 10510 10516 10518 10522
10116 10127 10139 10151 10164 10177 10188 10200 10211 10222 10232 10242 10253 10266 10279 10290 10300 10309 10321 10331 10342 10354 10365 10374 10384 10393 10400 10407 10413 10422 10429 10435 10445 10452 10458 10464 10470 10477 10480 10485 10491 10496 10500
10090 10104 10113 10123 10135 10147 10159 10170 10182 10192 10200 10210 10222 10235 10247 10258 10268 10278 10289 10300 10308 10318 10329 10340 10350 10358 10364 10375 10384 10389 10397 10404 10414 10425 10431 10438 10445 10449 10455 10461 10465 10468 10476